www.pogodaiklimat.ru

Погода и климат >> Архив погоды >> Канада >> Альберта >> Уэйнрайт


ПОГОДА в Уэйнрайте

  • Прогноз погоды в Уэйнрайте
  • Монитор погоды в Уэйнрайте

АРХИВ ПОГОДЫ в Уэйнрайте

Время (UTC), дата Ветер
(напр.,м/с)
 
Видим.   Явления Облачность Т
(С)
Тd
(С)
f
(%)
Тe
(С)
Тes
(С)
Комфортность P
(гПа)
Po
(гПа)
Тmin
(С)
Tmax
(С)
R
(мм)
R24
(мм)
S
(см)
18 10.02 В 4 н/о {осадки} н/о -24.7 -28.8 69 -34 -34 опасность
обморожения
1028.7 939.8 -32.2 -24.7 0.4
21 10.02 В 5 н/о н/о -21.7 -25.9 69 -32 -32 опасность
обморожения
1025.4 937.1 0.5
00 11.02 ЮВ 3 н/о {осадки} н/о -21.8 -25.6 71 -29 -29 1023.4 935.4 -32.2 -20.9 0.9
03 11.02 ЮВ 1 н/о н/о -22.8 -26.3 73 -26 -26 1022.9 934.9 0.2
06 11.02 ЮВ 2 н/о {осадки} н/о -23.2 -26.8 72 -30 -30 1021.1 933.6 -32.2 -20.9 0.5
09 11.02 В 2 н/о н/о -23.0 -26.3 74 -29 -29 1019.6 932.5 0.5
12 11.02 В 1 н/о {осадки} н/о -23.3 -26.6 74 -24 -24 1018.7 931.6 -23.3 -20.9 1
15 11.02 СВ 1 н/о {осадки} н/о -23.9 -27.1 75 -25 -25 1018.5 931.3 0.2
18 11.02 СЗ 1 н/о {осадки} н/о -21.2 -25.9 66 -24 -24 1019.2 932.2 -24.7 -21.0 0.2
21 11.02 СЗ 3 н/о н/о -20.4 -27.5 53 -27 -27 1019.7 932.7
00 12.02 СЗ 2 н/о н/о -23.2 -29.0 59 -30 -30 1022.0 934.5 -24.2 -19.2
03 12.02 З 3 н/о н/о -25.4 -29.1 71 -34 -34 опасность
обморожения
1023.9 936.0
06 12.02 ЮЗ 3 н/о н/о -28.6 -31.7 75 -37 -37 опасность
обморожения
1024.8 936.8 -29.2 -19.2 0.2
09 12.02 ЮЗ 3 н/о н/о -31.7 -35.1 72 -42 -42 опасность
обморожения
1025.5 937.2
12 12.02 ЮЗ 3 н/о н/о -32.6 -36.5 68 -43 -43 опасность
обморожения
1025.5 936.9 -33.1 -19.2
15 12.02 ЮЗ 3 н/о н/о -33.1 -37.2 67 -42 -42 опасность
обморожения
1026.7 937.7
18 12.02 ЮЗ 2 н/о н/о -28.7 -32.9 67 -36 -36 опасность
обморожения
1025.7 936.9 -34.6 -28.3
21 12.02 ЮЗ 3 н/о н/о -23.5 -28.7 62 -32 -32 опасность
обморожения
1023.4 935.0
00 13.02 ЮЗ 3 н/о н/о -27.1 -30.7 71 -36 -36 опасность
обморожения
1023.2 934.4 -34.6 -22.5
03 13.02 З 1 н/о н/о -28.9 -32.2 73 -30 -30 1021.9 933.0
06 13.02 ЮЗ 2 н/о н/о -30.6 -34.2 71 -37 -37 опасность
обморожения
1020.2 931.7 -34.6 -22.5
09 13.02 ЮЗ 1 н/о н/о -32.8 -36.9 67 -34 -34 опасность
обморожения
1018.1 930.1
12 13.02 ЮЗ 1 н/о н/о -34.1 -38.6 64 -36 -36 опасность
обморожения
1016.8 928.4 -34.4 -22.5
15 13.02 ЮЗ 1 н/о н/о -34.7 -38.9 65 -36 -36 опасность
обморожения
1016.0 927.5
18 13.02 ЮЗ 1 н/о н/о -28.7 -33.0 66 -30 -30 1015.6 927.5 -35.8 -28.7
21 13.02 ЮЗ 1 н/о н/о -20.4 -29.3 45 -24 -24 1013.7 926.3
00 14.02 З 1 н/о н/о -21.0 -27.9 54 -22 -22 1014.6 927.0 -35.8 -18.4
03 14.02 В 1 н/о н/о -26.2 -29.2 76 -30 -30 1016.0 927.7
06 14.02 Ю 2 н/о н/о -27.9 -31.0 75 -34 -34 опасность
обморожения
1017.2 929.2 -35.8 -18.4
09 14.02 ЮВ 1 н/о н/о -30.9 -34.5 70 -35 -35 опасность
обморожения
1018.2 930.6
12 14.02 В 2 н/о н/о -31.0 -35.1 67 -37 -37 опасность
обморожения
1019.0 931.3 -32.7 -18.4
15 14.02 ЮВ 1 н/о н/о -32.8 -37.3 64 -34 -34 опасность
обморожения
1021.5 932.9
18 14.02 Ю 4 н/о н/о -20.0 -25.8 60 -28 -28 1021.7 934.1 -33.2 -20.0
21 14.02 Ю 5 н/о н/о -17.3 -24.9 52 -27 -27 1021.2 933.6
00 15.02 Ю 3 н/о н/о -17.4 -24.3 55 -25 -25 1020.6 933.1 -33.2 -16.6
03 15.02 ЮВ 1 н/о н/о -23.4 -26.8 74 -24 -24 1021.5 933.2
06 15.02 В 2 н/о н/о -26.6 -29.4 77 -32 -32 опасность
обморожения
1020.9 933.5 -33.2 -16.6
09 15.02 В 2 н/о н/о -27.8 -31.1 73 -35 -35 опасность
обморожения
1019.5 932.4
12 15.02 В 3 н/о н/о -29.4 -33.3 69 -39 -39 опасность
обморожения
1018.4 931.2 -29.4 -16.6
15 15.02 В 2 н/о н/о -28.6 -32.5 69 -36 -36 опасность
обморожения
1018.8 931.1
18 15.02 В 3 н/о н/о -22.6 -28.2 60 -30 -30 1018.4 931.0 -30.0 -22.0
21 15.02 СВ 3 н/о н/о -20.2 -26.7 56 -28 -28 1017.3 930.1
00 16.02 СВ 3 н/о н/о -19.7 -24.6 65 -27 -27 1017.0 929.7 -30.0 -17.4
03 16.02 В 4 н/о н/о -19.8 -24.2 68 -28 -28 1017.0 929.8
06 16.02 СВ 2 н/о н/о -20.7 -24.8 70 -27 -27 1016.7 930.0 -30.0 -17.4
09 16.02 СВ 2 н/о н/о -20.8 -24.6 71 -27 -27 1016.1 929.6
12 16.02 СВ 3 н/о н/о -22.1 -25.4 74 -30 -30 1017.1 930.5 -22.4 -17.4
15 16.02 СВ 4 н/о н/о -20.0 -23.3 75 -28 -28 1018.3 931.7 0.2
18 16.02 СВ 5 н/о {осадки} н/о -18.2 -21.9 73 -27 -27 1019.9 933.3 -22.5 -18.0 0.7
21 16.02 С 4 н/о н/о -16.9 -20.4 74 -25 -25 1021.0 934.4 0.4
00 17.02 СВ 4 н/о {осадки} н/о -16.1 -18.8 80 -24 -24 1023.5 936.6 -22.4 -15.8 1
03 17.02 СВ 3 н/о н/о -15.7 -18.2 81 -23 -23 1025.5 938.7 0.9
06 17.02 СВ 4 н/о {осадки} н/о -16.3 -18.8 81 -24 -24 1027.3 940.4 -22.4 -15.6 2
09 17.02 СВ 3 н/о н/о -17.2 -19.7 81 -24 -24 1029.4 942.4 1
12 17.02 СВ 3 н/о {осадки} н/о -17.9 -20.6 79 -25 -25 1031.3 944.1 -17.9 -15.6 2
15 17.02 С 4 н/о {осадки} н/о -19.0 -21.8 78 -27 -27 1033.5 946.1 0.4

 

Местоположение метеостанции Уэйнрайт (Альберта, Канада): широта 52.82 долгота -111.10 высота над уровнем моря 686 м.

В архиве по умолчанию представлена погода в Уэйнрайте за последнюю неделю. Архивные данные за месяц целиком и за предыдущие месяцы, начиная с января 2011 года, Вы можете получить, выбрав интересующий диапазон дат из раскрывающегося списка и нажав кнопку "Ввод!".


*Определитесь, кто Вы:
робот инопланетянин человек

Внимание! Время в таблицах - всемирное. Для получения местного времени необходимо прибавить поправку, которая равна -7 ч.

Смотрите также архив погоды в соседних городах и на ближайших метеорологических станциях:

Погода в Альберт-холле (Альберта, Канада) (31 км)
Погода в Хагендене (Альберта, Канада) (35 км)
Погода в Белсхилле (Альберта, Канада) (36 км)
Погода в Гилт Эдж Норд (Альберта, Канада) (43 км)
Погода в Эджертоне (Альберта, Канада) (46 км)
Погода в Килламе (Альберта, Канада) (47 км)
Погода в Рибстоне (Альберта, Канада) (58 км)
Погода в Кесслере (Альберта, Канада) (60 км)
Погода в Вермилейне (Альберта, Канада) (60 км)
Погода в Кадогане (Альберта, Канада) (68 км)

Пояснения к столбцам:

Ветер - указаны скорость ветра в м/с - средняя за 10 мин, порывы в срок и между сроками (в фигурных скобках) и направление, откуда дует ветер: С - северный, СВ - северо-восточный, В - восточный, ЮВ - юго-восточный, Ю - южный, ЮЗ - юго-западный, З - западный, СЗ - северо-западный.
Видимость - горизонтальная дальность видимости в метрах или километрах. При видимости от 1 до 10 км при отсутствии осадков обычно наблюдается дымка, при ухудшении видимости до 1 км и менее - туман. В сухую погоду видимость может ухудшаться дымом, пылью или мглою.
Явления - указаны атмосферные явления, наблюдавшиеся в срок или в последний час перед сроком; фигурными скобками обозначены явления, наблюдавшиеся между сроками (за 1-3 часа до срока); квадратными скобками обозначены град или гололедные отложения с указанием их диаметра в мм.
Облачность - указаны через наклонную черту общая и нижняя облачность в баллах и высота нижней границы облаков в метрах; квадратными скобками обозначены формы облаков: Ci - перистые, Cs - перисто-слоистые, Cc - перисто-кучевые, Ac - высококучевые, As - высокослоистые, Sc - слоисто-кучевые, Ns - слоисто-дождевые, Cu - кучевые, Cb - кучево-дождевые. Подробнее классификацию облаков см. в Атласе облаков (PDF).
T - Температура воздуха - температура, измеренная на высоте 2 м над землей.
Td - Температура точки росы - температура, при понижении до которой содержащийся в воздухе водяной пар достигнет насыщения.
f - Относительная влажность воздуха - влажноcть воздуха, измеренная на высоте 2 м над землей.
Te - Эффективная температура - температура, которую ощущает одетый по сезону человек в тени. Характеристика душности погоды. При расчете учитывается влияние влажности воздуха и скорости ветра на теплоощущения человека.
Tes - Эффективная температура на солнце - температура, которую ощущает человек, с поправкой на солнечный нагрев. Характеристика знойности погоды. Зависит от высоты солнца над горизонтом, облачности и скорости ветра. Ночью, в пасмурную погоду, а также при ветре 12 м/с и более поправка равна нулю.
P - Атмосферное давление - приведенное к уровню моря атмосферное давление.
Po - Атмосферное давление - измеренное на уровне метеостанции атмосферное давление.
Tmin - Минимальная температура - минимум температуры воздуха на высоте 2 м над землей.
Tmax - Максимальная температура - максимум температуры воздуха на высоте 2 м над землей.
R - Количество осадков - Количество выпавших осадков за период времени, мм. При наведении курсора мыши на число - период времени, за который выпало указанное количество осадков.
R24 - Количество осадков - Количество выпавших осадков за 24 часа, мм.
S - Снежный покров - Высота снежного покрова, см. При наведении курсора мыши на число - состояние снежного покрова и степень покрытия местности в баллах.